Location: Mentone
(34.5413°N, 85.5351°W)
Time: 17:07:26
(UTC-05:00)

AO-Echo - Visible Passes

Search period start: 28 May 2016 00:00
Search period end: 07 June 2016 00:00
Orbit: 693 x 812 km, 98.3° (Epoch: 27 May)

Date Brightness Start Highest point End Pass type
(mag) Time Alt. Az. Time Alt. Az. Time Alt. Az.
28 May ? 02:14:54 10° NNE 02:19:34 72° NNE 02:19:34 72° NNE visible
28 May ? 03:57:41 10° WNW 03:58:07 10° WNW 03:58:32 10° WNW visible
29 May ? 01:34:56 10° NNE 01:38:43 31° ENE 01:38:43 31° ENE visible
29 May ? 03:13:57 10° NNW 03:18:10 25° WNW 03:18:39 25° WNW visible
30 May ? 00:56:34 10° ENE 00:57:51 12° E 00:57:51 12° E visible
30 May ? 02:32:50 10° N 02:37:48 62° WNW 02:37:48 62° WNW visible
31 May ? 01:52:30 10° NNE 01:56:56 48° ENE 01:56:56 48° ENE visible
31 May ? 03:32:33 10° NNW 03:35:54 17° WNW 03:36:52 17° W visible
01 Jun ? 01:13:10 10° NE 01:16:04 19° E 01:16:04 19° E visible
01 Jun ? 02:50:55 10° N 02:55:49 42° WNW 02:56:00 41° WNW visible
02 Jun ? 02:10:15 10° NNE 02:15:08 73° NE 02:15:08 73° NE visible
02 Jun ? 03:51:51 10° NW 03:53:34 12° WNW 03:55:04 10° W visible
03 Jun ? 01:30:23 10° NE 01:34:16 29° E 01:34:16 29° E visible
03 Jun ? 03:09:10 10° NNW 03:13:36 28° WNW 03:14:12 28° W visible
04 Jun ? 00:52:26 10° ENE 00:53:23 11° E 00:53:23 11° E visible
04 Jun ? 02:28:09 10° N 02:33:20 70° WNW 02:33:20 70° WNW visible
05 Jun ? 01:47:54 10° NNE 01:52:27 45° E 01:52:27 45° E visible
05 Jun ? 03:27:40 10° NNW 03:31:20 19° WNW 03:32:23 18° W visible
06 Jun ? 01:08:44 10° NE 01:11:34 18° E 01:11:34 18° E visible
06 Jun ? 02:46:13 10° N 02:51:15 46° WNW 02:51:31 46° W visible
